User: anonymous   Login
Location: Goheenville
(40.9070°N, 79.3720°W)
Time: 07:01:40
(UTC-04:00)
Language:

Meteor 2-10 Rocket - Orbit

View from above orbital plane
View from above orbital plane
View from above satellite
View from above satellite

Ground track
Ground track

The orbit data is extracted from the following two-line orbital elements,

1 14453U 83109B   14295.69077531  .00000207  00000-0  79419-4 0  2623
2 14453 081.1684 000.5306 0104433 345.7962 185.9342 14.24524638609637
Epoch (UTC): 22 October 2014 16:34:42
Eccentricity: 0.0104433
inclination: 81.1684°
perigee height: 735 km
apogee height: 885 km
right ascension of ascending node: 0.5306°
argument of perigee: 345.7962°
revolutions per day: 14.24524638
mean anomaly at epoch: 185.9342°
orbit number at epoch: 60963

The dashed part of the orbit path shows where the satellite is in the earth's shadow,  

DLR